Location: Paderno d�Adda
(45.6667°N, 9.4333°E)
Time: 22:35:41
(UTC+00:00)

Cosmos 1125 Rocket - Pass Details

Date: 26 January 2021
Orbit: 757 x 780 km, 74.0° (Epoch: 08 March)

Event Time Altitude Azimuth Distance (km) Brightness Sun altitude
Exits shadow 05:37:37 - 332° (NNW) 2,716 6.0 -12.7°
Reaches altitude 10° 05:38:37 10° 329° (NNW) 2,339 5.6 -12.6°
Maximum altitude 05:43:45 51° 255° (WSW) 977 3.7 -11.7°
Drops below altitude 10° 05:48:51 10° 180° (S) 2,327 6.2 -10.8°
Sets 05:51:17 0° 176° (S) 3,250 7.0 -10.4°
